Weather History for Tampico, Mexico

Change the Weather History Date:

Monday, December 17, 2012

  Actual Average Record
Temperature  
Mean Temperature 77 °F -  
Max Temperature 85 °F 72 °F 85 °F (2012)
Min Temperature 69 °F 58 °F 50 °F (2013)
Cooling Degree Days 12    
Growing Degree Days 27 (Base 50)    
Moisture  
Dew Point 65 °F    
Average Humidity 72    
Maximum Humidity 97    
Minimum Humidity 43    
Precipitation  
Precipitation 0.00 in - - ()
Sea Level Pressure  
Sea Level Pressure 29.92 in    
Wind  
Wind Speed 9 mph ()    
Max Wind Speed 23 mph    
Max Gust Speed -    
Visibility 5.5 miles    
Events Fog    
Averages and records for this station are not official NWS values.
T = Trace of Precipitation, MM = Missing Value Source: Averaged Metar Reports

Daily Weather History Graph

Daily Weather History Graph

Search for Another Location

Airport:

Trip Planner

Search our weather history database for the weather conditions in past years. The results will help you decide how hot, cold, wet, or windy it might be!

Date:

Astronomy

Dec. 17, 2012 Rise Set
Actual Time 7:04 AM CST 5:51 PM CST
Civil Twilight 6:40 AM CST 6:15 PM CST
Nautical Twilight 6:12 AM CST 6:43 PM CST
Astronomical Twilight 5:44 AM CST 7:11 PM CST
Moon 10:42 AM CST (12/17) 10:41 PM CST (12/17)
Length of Visible Light 11h 35m
Length of Day
10h 46m
Waxing Crescent, 25% of the Moon is Illuminated
Dec 17
Waxing Crescent
Dec 19
First Quarter
Dec 28
Full
Jan 4
Last Quarter
Jan 11
New

Hourly Weather History & Observations

Time (CST) Temp. Dew Point Humidity Pressure Visibility Wind Dir Wind Speed Gust Speed Precip Events Conditions
2:45 AM 70 °F 69 °F 97% 29.82 in 6 mi East 2.2 mph - -   Haze
5:33 AM 71.6 °F 69.8 °F 94% 29.82 in 0.5 mi WNW 8.1 mph - N/A Fog Fog
5:41 AM 71.6 °F 69.8 °F 94% 29.82 in 0.2 mi WNW 6.9 mph - N/A Fog Fog
5:50 AM 71 °F 69 °F 92% 29.85 in 0 mi NW 2.2 mph - - Fog Heavy Fog
6:00 AM 71.6 °F 69.8 °F 94% 29.83 in 1.0 mi WNW 5.8 mph - N/A   Mist
6:23 AM 71.6 °F 69.8 °F 94% 29.85 in 1.0 mi NW 6.9 mph - N/A   Mist
6:43 AM 71.6 °F 69.8 °F 94% 29.86 in 1.0 mi NNW 8.1 mph - N/A   Overcast
7:44 AM 71.6 °F 68.0 °F 88% 29.89 in 2.0 mi North 13.8 mph - N/A   Mostly Cloudy
8:29 AM 73.4 °F 66.2 °F 78% 29.92 in 4.0 mi North 11.5 mph - N/A   Mostly Cloudy
8:45 AM 72 °F 69 °F 88% 29.96 in 11 mi North 4.5 mph - -   Haze
8:47 AM 73.4 °F 66.2 °F 78% 29.94 in 4.0 mi North 16.1 mph - N/A   Mostly Cloudy
9:45 AM 75.2 °F 64.4 °F 69% 29.96 in 4.0 mi North 18.4 mph - N/A   Mostly Cloudy
10:48 AM 78.8 °F 66.2 °F 65% 29.98 in 4.0 mi North 15.0 mph - N/A   Mostly Cloudy
11:45 AM 80 °F 70 °F 63% 30.00 in 12 mi NNW 8.9 mph - -   Partly Cloudy
11:48 AM 78.8 °F 68.0 °F 69% 29.96 in 5.0 mi NNE 10.4 mph - N/A   Mostly Cloudy
12:46 PM 78.8 °F 66.2 °F 65% 29.93 in 5.0 mi NNE 13.8 mph - N/A   Mostly Cloudy
1:43 PM 78.8 °F 66.2 °F 65% 29.90 in 5.0 mi NNE 13.8 mph - N/A   Mostly Cloudy
2:40 PM 81 °F 69 °F 59% 29.92 in 14 mi NE 8.9 mph - -   Partly Cloudy
2:42 PM 78.8 °F 68.0 °F 69% 29.89 in 5.0 mi NNE 23.0 mph - N/A   Mostly Cloudy
3:41 PM 77.0 °F 62.6 °F 61% 29.89 in 5.0 mi NNE 23.0 mph - N/A   Mostly Cloudy
5:40 PM 76 °F 58 °F 43% 29.95 in 12 mi NNE 11.2 mph - -   Clear
6:42 PM 75.2 °F 53.6 °F 47% 29.93 in 7.0 mi NNE 18.4 mph - N/A   Mostly Cloudy
7:40 PM 73.4 °F 55.4 °F 53% 29.96 in 8.0 mi NNE 17.3 mph - N/A   Clear
8:44 PM 73.4 °F 59.0 °F 61% 29.98 in 8.0 mi NNE 13.8 mph - N/A   Scattered Clouds
8:45 PM 73 °F 56 °F 44% 30.01 in 6 mi NE 8.9 mph - -   Scattered Clouds
9:41 PM 73.4 °F 60.8 °F 65% 29.98 in 8.0 mi NNE 12.7 mph - N/A   Scattered Clouds
10:40 PM 73.4 °F 60.8 °F 65% 29.99 in 8.0 mi NNE 6.9 mph - N/A   Clear
11:40 PM 71 °F 62 °F 65% 30.03 in 6 mi NNW 2.2 mph - -